Terminal Aerodrome Forecast
Issued by NWS Springfield, MO

Home | Current Version | Previous Version | Text Only | Print | Product List | Glossary On
Versions: 1 2 3 4 5 6 7 8 9 10 11 12 13 14 15 16 17 18 19 20 21 22 23 24 25
000
FTUS43 KSGF 200100 AAA
TAFSGF
TAF AMD
KSGF 200102Z 2001/2024 16005KT P6SM OVC005
     FM200800 VRB03KT 4SM BR OVC004
      TEMPO 2010/2014 1SM BR OVC003
     FM201600 18005KT P6SM BKN008
     FM202200 19005KT P6SM SCT030 SCT250=

USA.gov is the U.S. government's official web portal to all federal, state and local government web resources and services.